FW4770 Weather Reports


time (UTC)temp
C
wind
direction
speed
KPH
gust
KPH
rain 1hr
cm
rain 24hr
cm
rain mn
cm
humidity
%
barometer
mb
20210920053827 25 165 14.5 27.4 0.00 0.00 0.00 69 1009.1
20210920053330 25 156 9.7 22.5 0.00 0.00 0.00 69 1009.1
20210920052816 25 169 14.5 24.1 0.00 0.00 0.00 69 1009.1
20210920052322 25 173 12.9 20.9 0.00 0.00 0.00 69 1009.2
20210920051821 25 167 11.3 24.1 0.00 0.00 0.00 68 1009.2
20210920051327 25 197 12.9 24.1 0.00 0.00 0.00 68 1009.2
20210920050814 25 165 14.5 20.9 0.00 0.00 0.00 68 1009.2
20210920050322 25 188 12.9 17.7 0.00 0.00 0.00 68 1009.3
20210920045822 25 182 12.9 20.9 0.00 0.00 0.00 68 1009.4
20210920045310 25 153 12.9 20.9 0.00 0.00 0.00 67 1009.4
20210920044818 25 175 12.9 24.1 0.00 0.00 0.00 67 1009.4
20210920044320 25 186 9.7 24.1 0.00 0.00 0.00 67 1009.5
20210920043829 25 184 12.9 20.9 0.00 0.00 0.00 67 1009.5
20210920043317 25 153 14.5 20.9 0.00 0.00 0.00 67 1009.5
20210920042825 25 150 12.9 25.7 0.00 0.00 0.00 66 1009.5
20210920042333 25 140 12.9 29.0 0.00 0.00 0.00 66 1009.5
20210920041814 25 140 14.5 29.0 0.00 0.00 0.00 66 1009.5
20210920041323 25 161 17.7 29.0 0.00 0.00 0.00 66 1009.5
20210920040832 25 145 17.7 27.4 0.00 0.00 0.00 66 1009.5
20210920040314 25 198 14.5 24.1 0.00 0.00 0.00 66 1009.6
20210920035822 25 188 11.3 25.7 0.00 0.00 0.00 66 1009.6
20210920035310 25 159 14.5 25.7 0.00 0.00 0.00 65 1009.6
20210920034817 25 161 14.5 22.5 0.00 0.00 0.00 65 1009.7
20210920034320 26 178 11.3 30.6 0.00 0.00 0.00 65 1009.7
20210920033829 26 165 14.5 30.6 0.00 0.00 0.00 64 1009.7
20210920033318 26 115 17.7 29.0 0.00 0.00 0.00 64 1009.8
20210920032820 26 167 14.5 29.0 0.00 0.00 0.00 64 1009.7
20210920032329 26 146 14.5 22.5 0.00 0.00 0.00 64 1009.8
20210920031816 26 146 12.9 20.9 0.00 0.00 0.00 64 1009.8
20210920031319 26 172 14.5 24.1 0.00 0.00 0.00 64 1009.8
20210920030812 26 146 12.9 24.1 0.00 0.00 0.00 64 1009.8
20210920030320 26 133 12.9 22.5 0.00 0.00 0.00 64 1009.8
20210920025831 26 192 11.3 24.1 0.00 0.00 0.00 64 1009.8
20210920025313 26 147 12.9 24.1 0.00 0.00 0.00 63 1009.8
20210920024820 26 160 12.9 27.4 0.00 0.00 0.00 63 1009.8
20210920024327 26 164 14.5 25.7 0.00 0.00 0.00 63 1009.8
20210920023829 26 143 14.5 22.5 0.00 0.00 0.00 63 1009.8
20210920023318 26 162 16.1 22.5 0.00 0.00 0.00 63 1009.8
20210920022826 26 148 14.5 22.5 0.00 0.00 0.00 63 1009.8
20210920022329 26 161 9.7 22.5 0.00 0.00 0.00 63 1009.8
20210920021818 26 114 12.9 19.3 0.00 0.00 0.00 63 1009.8
20210920021325 26 168 14.5 22.5 0.00 0.00 0.00 63 1009.8
20210920020833 26 144 14.5 24.1 0.00 0.00 0.00 62 1009.8
20210920020314 26 157 12.9 24.1 0.00 0.00 0.00 62 1009.8
20210920015821 27 143 12.9 20.9 0.00 0.00 0.00 62 1009.8
20210920015330 27 137 14.5 22.5 0.00 0.00 0.00 62 1009.8
20210920014813 27 155 14.5 19.3 0.00 0.00 0.00 61 1009.9
20210920014321 27 142 14.5 17.7 0.00 0.00 0.00 61 1009.9
20210920013830 27 147 8.0 22.5 0.00 0.00 0.00 61 1009.9
20210920013312 27 142 12.9 22.5 0.00 0.00 0.00 61 1009.8
20210920012822 27 141 12.9 19.3 0.00 0.00 0.00 61 1009.8
20210920012330 27 155 11.3 16.1 0.00 0.00 0.00 61 1009.8
20210920011811 27 117 11.3 16.1 0.00 0.00 0.00 60 1009.8
20210920011320 27 146 11.3 16.1 0.00 0.00 0.00 60 1009.7
20210920010828 27 160 9.7 16.1 0.00 0.00 0.00 60 1009.8
20210920010337 27 152 8.0 16.1 0.00 0.00 0.00 59 1009.7
20210920005818 27 171 8.0 16.1 0.00 0.00 0.00 59 1009.6
20210920005326 27 145 9.7 20.9 0.00 0.00 0.00 59 1009.6
20210920004810 27 147 11.3 20.9 0.00 0.00 0.00 58 1009.6
20210920004319 28 165 9.7 16.1 0.00 0.00 0.00 58 1009.6
20210920003821 28 141 11.3 20.9 0.00 0.00 0.00 58 1009.5
20210920003310 28 168 11.3 20.9 0.00 0.00 0.00 57 1009.5
20210920002816 28 163 12.9 20.9 0.00 0.00 0.00 57 1009.4
20210920002319 28 157 8.0 17.7 0.00 0.00 0.00 57 1009.5
20210920001828 28 134 9.7 17.7 0.00 0.00 0.00 56 1009.5
20210920001317 28 142 9.7 17.7 0.00 0.00 0.00 56 1009.5
20210920000820 28 166 9.7 16.1 0.00 0.00 0.00 56 1009.5
20210920000330 28 158 6.4 16.1 0.00 0.00 0.00 56 1009.5
20210919235818 28 184 11.3 20.9 0.00 0.00 0.00 55 1009.3
20210919235327 29 154 12.9 22.5 0.00 0.00 0.00 55 1009.4
20210919234812 29 144 14.5 22.5 0.00 0.00 0.00 54 1009.4
20210919234320 29 175 8.0 25.7 0.00 0.00 0.00 55 1009.3
20210919233829 29 156 16.1 25.7 0.00 0.00 0.00 54 1009.3
20210919233327 29 173 11.3 20.9 0.00 0.00 0.00 54 1009.3
20210919232815 29 151 14.5 19.3 0.00 0.00 0.00 54 1009.3
20210919232324 29 134 11.3 24.1 0.00 0.00 0.00 53 1009.5
20210919231831 29 152 14.5 24.1 0.00 0.00 0.00 52 1009.3
20210919231313 30 169 12.9 29.0 0.00 0.00 0.00 52 1009.4
20210919230822 30 159 14.5 29.0 0.00 0.00 0.00 52 1009.2
20210919230331 30 134 14.5 24.1 0.00 0.00 0.00 52 1009.2
20210919225814 30 175 16.1 29.0 0.00 0.00 0.00 52 1009.2
20210919225321 30 140 12.9 29.0 0.00 0.00 0.00 51 1009.1
20210919224810 30 177 17.7 32.2 0.00 0.00 0.00 51 1009.1
20210919224311 30 143 16.1 33.8 0.00 0.00 0.00 50 1009.1
20210919223820 30 158 19.3 41.8 0.00 0.00 0.00 50 1009.0
20210919223328 30 173 19.3 41.8 0.00 0.00 0.00 49 1009.0
20210919222817 30 210 17.7 35.4 0.00 0.00 0.00 48 1009.0
20210919222320 31 169 20.9 40.2 0.00 0.00 0.00 48 1008.9
20210919221828 30 171 25.7 40.2 0.00 0.00 0.00 48 1009.0
20210919221316 30 168 16.1 40.2 0.00 0.00 0.00 49 1009.2
20210919220819 31 143 20.9 40.2 0.00 0.00 0.00 48 1009.2
20210919220328 31 171 24.1 48.3 0.00 0.00 0.00 48 1009.2
20210919215816 31 163 22.5 41.8 0.00 0.00 0.00 49 1009.3
20210919215324 31 169 20.9 37.0 0.00 0.00 0.00 48 1009.2
20210919214827 31 165 22.5 40.2 0.00 0.00 0.00 48 1009.2
20210919214313 31 180 17.7 40.2 0.00 0.00 0.00 49 1009.2
20210919213821 31 194 20.9 48.3 0.00 0.00 0.00 49 1009.3
20210919213312 31 150 27.4 48.3 0.00 0.00 0.00 48 1009.2
20210919212813 31 206 24.1 37.0 0.00 0.00 0.00 50 1009.5
20210919212321 31 153 19.3 30.6 0.00 0.00 0.00 49 1009.5
20210919211829 31 173 20.9 33.8 0.00 0.00 0.00 49 1009.6
20210919211317 31 158 20.9 33.8 0.00 0.00 0.00 48 1009.6
20210919210829 31 163 20.9 33.8 0.00 0.00 0.00 48 1009.8
20210919210309 31 197 16.1 37.0 0.00 0.00 0.00 49 1009.9
20210919205818 31 248 17.7 37.0 0.00 0.00 0.00 51 1010.0
20210919205324 31 132 17.7 32.2 0.00 0.00 0.00 52 1009.9
20210919204825 31 209 22.5 35.4 0.00 0.00 0.00 50 1009.9
20210919204312 31 165 19.3 30.6 0.00 0.00 0.00 51 1010.0
20210919203820 31 182 16.1 25.7 0.00 0.00 0.00 50 1010.1
20210919203331 31 186 11.3 45.1 0.00 0.00 0.00 51 1010.2
20210919202815 31 180 20.9 45.1 0.00 0.00 0.00 50 1010.3
20210919202323 31 148 22.5 40.2 0.00 0.00 0.00 50 1010.2
20210919201814 31 148 12.9 30.6 0.00 0.00 0.00 52 1010.3
20210919201314 31 144 19.3 33.8 0.00 0.00 0.00 53 1010.4
20210919200821 31 135 19.3 33.8 0.00 0.00 0.00 52 1010.3
20210919200309 31 154 17.7 32.2 0.00 0.00 0.00 52 1010.4
20210919195818 31 159 19.3 35.4 0.00 0.00 0.00 51 1010.3
20210919195320 31 146 16.1 37.0 0.00 0.00 0.00 51 1010.5
20210919194828 30 173 25.7 37.0 0.00 0.00 0.00 50 1010.5
20210919194317 31 165 22.5 41.8 0.00 0.00 0.00 51 1010.3
20210919193819 31 187 17.7 41.8 0.00 0.00 0.00 50 1010.6
20210919193327 31 155 22.5 35.4 0.00 0.00 0.00 50 1010.4
20210919192815 31 196 17.7 37.0 0.00 0.00 0.00 51 1010.5
20210919192315 31 148 12.9 29.0 0.00 0.00 0.00 52 1010.6
20210919191823 31 153 19.3 32.2 0.00 0.00 0.00 52 1010.6
20210919191310 30 190 17.7 32.2 0.00 0.00 0.00 53 1010.7
20210919190819 30 161 19.3 30.6 0.00 0.00 0.00 55 1010.7
20210919190322 30 150 14.5 35.4 0.00 0.00 0.00 57 1010.8
20210919185810 30 161 17.7 38.6 0.00 0.00 0.00 54 1010.9
20210919185318 30 179 19.3 38.6 0.00 0.00 0.00 53 1011.0
20210919184821 30 194 16.1 30.6 0.00 0.00 0.00 54 1011.1
20210919184328 30 138 17.7 37.0 0.00 0.00 0.00 54 1011.1
20210919183815 30 104 20.9 30.6 0.00 0.00 0.00 55 1011.2
20210919183323 30 140 16.1 32.2 0.00 0.00 0.00 54 1011.3
20210919182833 30 148 17.7 33.8 0.00 0.00 0.00 55 1011.3
20210919182314 30 155 19.3 38.6 0.00 0.00 0.00 54 1011.4
20210919181821 30 190 14.5 35.4 0.00 0.00 0.00 57 1011.6
20210919181325 30 213 14.5 29.0 0.00 0.00 0.00 57 1011.5
20210919180833 29 202 14.5 29.0 0.00 0.00 0.00 56 1011.7
20210919180314 29 248 16.1 35.4 0.00 0.00 0.00 57 1011.7
20210919175822 29 193 19.3 35.4 0.00 0.00 0.00 58 1011.8
20210919175328 29 163 20.9 29.0 0.00 0.00 0.00 58 1011.8
20210919174834 28 161 16.1 29.0 0.00 0.00 0.00 61 1011.8
20210919174315 28 164 17.7 27.4 0.00 0.00 0.00 60 1011.9
20210919173822 28 180 12.9 30.6 0.00 0.00 0.00 62 1012.0
20210919173313 28 221 14.5 30.6 0.00 0.00 0.00 61 1012.0
20210919172814 28 189 14.5 24.1 0.00 0.00 0.00 61 1012.1
20210919172323 28 188 17.7 32.2 0.00 0.00 0.00 61 1012.1
20210919171809 28 166 16.1 32.2 0.00 0.00 0.00 61 1012.1
20210919171320 28 167 16.1 25.7 0.00 0.00 0.00 61 1012.1
20210919170818 28 142 11.3 19.3 0.00 0.00 0.00 65 1012.2
20210919170309 27 151 9.7 20.9 0.00 0.00 0.00 64 1012.2
20210919165817 27 147 16.1 22.5 0.00 0.00 0.00 64 1012.3
20210919165320 27 175 12.9 24.1 0.00 0.00 0.00 64 1012.4
20210919164829 27 146 12.9 32.2 0.00 0.00 0.00 65 1012.4
20210919164316 27 197 17.7 32.2 0.00 0.00 0.00 64 1012.6
20210919163819 27 153 17.7 27.4 0.00 0.00 0.00 64 1012.6
20210919163328 27 162 17.7 27.4 0.00 0.00 0.00 65 1012.6
20210919162813 27 131 16.1 27.4 0.00 0.00 0.00 66 1012.8
20210919162321 27 124 12.9 30.6 0.00 0.00 0.00 67 1012.9
20210919161823 27 128 19.3 30.6 0.00 0.00 0.00 66 1012.9
20210919161311 27 197 12.9 22.5 0.00 0.00 0.00 66 1013.0
20210919160816 27 186 12.9 30.6 0.00 0.00 0.00 68 1013.1
20210919160324 26 184 19.3 33.8 0.00 0.00 0.00 68 1013.0
20210919155827 26 135 9.7 22.5 0.00 0.00 0.00 69 1013.1
20210919155314 26 149 11.3 22.5 0.00 0.00 0.00 69 1013.2
20210919154821 26 167 14.5 27.4 0.00 0.00 0.00 70 1013.3
20210919154332 26 159 16.1 27.4 0.00 0.00 0.00 70 1013.3
20210919153810 26 167 14.5 25.7 0.00 0.00 0.00 70 1013.4
20210919153319 25 157 16.1 25.7 0.00 0.00 0.00 71 1013.4
20210919152826 25 132 9.7 24.1 0.00 0.00 0.00 73 1013.5
20210919152328 25 182 14.5 24.1 0.00 0.00 0.00 73 1013.5
20210919151815 25 185 9.7 20.9 0.00 0.00 0.00 73 1013.6
20210919151324 24 154 12.9 20.9 0.00 0.00 0.00 75 1013.6
20210919150833 24 168 11.3 20.9 0.00 0.00 0.00 75 1013.7
20210919150312 24 180 14.5 20.9 0.00 0.00 0.00 75 1013.6
20210919145820 23 180 11.3 19.3 0.00 0.00 0.00 76 1013.6
20210919145327 23 148 8.0 20.9 0.00 0.00 0.00 77 1013.8
20210919144810 23 187 9.7 16.1 0.00 0.00 0.00 77 1013.8
20210919144317 23 154 9.7 19.3 0.00 0.00 0.00 77 1013.8
20210919143825 23 202 11.3 22.5 0.00 0.00 0.00 77 1013.8
20210919143332 23 167 12.9 22.5 0.00 0.00 0.00 77 1013.7
20210919142816 22 193 12.9 19.3 0.00 0.00 0.00 78 1013.7
20210919142323 22 138 14.5 24.1 0.00 0.00 0.00 78 1013.6
20210919141809 22 146 16.1 24.1 0.00 0.00 0.00 78 1013.7
20210919141318 22 154 14.5 19.3 0.00 0.00 0.00 78 1013.8
20210919140821 22 170 12.9 17.7 0.00 0.00 0.00 79 1013.7
20210919140309 22 103 9.7 19.3 0.00 0.00 0.00 80 1013.8
20210919135818 22 160 12.9 19.3 0.00 0.00 0.00 80 1013.8
20210919135321 21 152 11.3 17.7 0.00 0.00 0.00 80 1013.8
20210919134828 21 155 9.7 17.7 0.00 0.00 0.00 81 1013.9
20210919134316 21 145 9.7 19.3 0.00 0.00 0.00 81 1014.0
20210919133818 21 155 11.3 19.3 0.00 0.00 0.00 81 1013.9
20210919133324 21 134 8.0 14.5 0.00 0.00 0.00 82 1013.9
20210919132816 21 132 9.7 16.1 0.00 0.00 0.00 82 1014.0
20210919132324 21 120 9.7 16.1 0.00 0.00 0.00 82 1014.0
20210919131826 20 123 9.7 16.1 0.00 0.00 0.00 83 1014.2
20210919131314 20 136 11.3 16.1 0.00 0.00 0.00 83 1014.1
20210919130823 20 142 11.3 17.7 0.00 0.00 0.00 83 1014.1
20210919130325 20 132 11.3 17.7 0.00 0.00 0.00 83 1014.1
20210919125811 20 116 8.0 16.1 0.00 0.00 0.00 84 1014.3
20210919125319 20 121 6.4 16.1 0.00 0.00 0.00 84 1014.3
20210919124828 20 155 6.4 16.1 0.00 0.00 0.00 84 1014.3
20210919124329 19 182 9.7 19.3 0.00 0.00 0.00 84 1014.4
20210919123818 19 148 9.7 19.3 0.00 0.00 0.00 85 1014.3
20210919123325 19 147 12.9 17.7 0.00 0.00 0.00 85 1014.4
20210919122827 19 144 8.0 17.7 0.00 0.00 0.00 85 1014.5
20210919122315 19 141 8.0 17.7 0.00 0.00 0.00 85 1014.5
20210919121823 19 166 11.3 17.7 0.00 0.00 0.00 85 1014.3
20210919121331 19 113 11.3 16.1 0.00 0.00 0.00 85 1014.4
20210919120813 19 131 9.7 16.1 0.00 0.00 0.00 84 1014.4
20210919120319 19 133 9.7 16.1 0.00 0.00 0.00 84 1014.3
20210919115827 19 117 9.7 16.1 0.00 0.00 0.00 84 1014.3
20210919115309 19 134 8.0 16.1 0.00 0.00 0.00 84 1014.4
20210919114816 19 159 9.7 12.9 0.00 0.00 0.00 84 1014.4
20210919114325 19 140 6.4 16.1 0.00 0.00 0.00 83 1014.4
20210919113834 19 145 9.7 16.1 0.00 0.00 0.00 83 1014.4
20210919113314 19 140 9.7 12.9 0.00 0.00 0.00 83 1014.4
20210919112824 19 150 6.4 12.9 0.00 0.00 0.00 83 1014.5
20210919112312 19 132 8.0 12.9 0.00 0.00 0.00 82 1014.5
20210919111815 19 150 8.0 17.7 0.00 0.00 0.00 82 1014.4
20210919111324 20 149 12.9 17.7 0.00 0.00 0.00 82 1014.4
20210919110813 20 153 9.7 17.7 0.00 0.00 0.00 82 1014.5
20210919110322 20 150 11.3 19.3 0.00 0.00 0.00 82 1014.5
20210919105829 20 126 11.3 19.3 0.00 0.00 0.00 82 1014.6
20210919105312 20 155 11.3 17.7 0.00 0.00 0.00 82 1014.5
20210919104819 20 138 11.3 17.7 0.00 0.00 0.00 81 1014.5
20210919104326 20 136 11.3 20.9 0.00 0.00 0.00 81 1014.5
20210919103809 19 138 12.9 22.5 0.00 0.00 0.00 81 1014.5
20210919103319 19 148 12.9 22.5 0.00 0.00 0.00 81 1014.5
20210919102827 19 153 9.7 20.9 0.00 0.00 0.00 81 1014.5
20210919102309 19 165 9.7 16.1 0.00 0.00 0.00 81 1014.5
20210919101818 19 154 11.3 19.3 0.00 0.00 0.00 81 1014.6
20210919101322 19 162 11.3 19.3 0.00 0.00 0.00 80 1014.5
20210919100814 19 165 9.7 16.1 0.00 0.00 0.00 80 1014.5
20210919100314 19 131 8.0 16.1 0.00 0.00 0.00 80 1014.6
20210919095822 19 157 11.3 17.7 0.00 0.00 0.00 80 1014.6
20210919095328 19 153 8.0 17.7 0.00 0.00 0.00 79 1014.7
20210919094816 19 173 9.7 19.3 0.00 0.00 0.00 79 1014.7
20210919094318 19 139 11.3 19.3 0.00 0.00 0.00 79 1014.7
20210919093826 20 161 8.0 14.5 0.00 0.00 0.00 78 1014.8
20210919093314 20 132 6.4 19.3 0.00 0.00 0.00 78 1014.8
20210919092822 20 169 9.7 19.3 0.00 0.00 0.00 78 1014.8
20210919092323 20 146 8.0 17.7 0.00 0.00 0.00 78 1014.8
20210919091810 20 142 11.3 22.5 0.00 0.00 0.00 78 1014.7
20210919091319 20 149 11.3 22.5 0.00 0.00 0.00 78 1014.7
20210919090821 20 151 8.0 17.7 0.00 0.00 0.00 77 1014.7
20210919090311 20 124 9.7 19.3 0.00 0.00 0.00 77 1014.7
20210919085816 20 128 9.7 17.7 0.00 0.00 0.00 77 1014.8
20210919085321 20 146 9.7 17.7 0.00 0.00 0.00 77 1014.9
20210919084824 20 134 11.3 19.3 0.00 0.00 0.00 76 1014.9
20210919084312 20 140 9.7 19.3 0.00 0.00 0.00 76 1015.0
20210919083822 20 138 11.3 16.1 0.00 0.00 0.00 76 1015.0
20210919083322 20 136 9.7 17.7 0.00 0.00 0.00 75 1015.1
20210919082809 20 128 9.7 19.3 0.00 0.00 0.00 75 1015.2
20210919082317 20 152 12.9 22.5 0.00 0.00 0.00 75 1015.3
20210919081819 20 145 14.5 22.5 0.00 0.00 0.00 75 1015.4
20210919081327 20 104 9.7 24.1 0.00 0.00 0.00 75 1015.5
20210919080816 20 147 12.9 24.1 0.00 0.00 0.00 74 1015.5
20210919080326 20 128 12.9 20.9 0.00 0.00 0.00 74 1015.5
20210919075826 20 116 11.3 19.3 0.00 0.00 0.00 74 1015.5
20210919075315 20 148 12.9 19.3 0.00 0.00 0.00 74 1015.5
20210919074824 20 126 8.0 22.5 0.00 0.00 0.00 73 1015.5
20210919074331 20 133 11.3 22.5 0.00 0.00 0.00 73 1015.5
20210919073814 20 144 11.3 19.3 0.00 0.00 0.00 73 1015.5
20210919073322 20 150 11.3 19.3 0.00 0.00 0.00 72 1015.7
20210919072825 20 147 12.9 19.3 0.00 0.00 0.00 72 1015.8
20210919072334 20 148 11.3 19.3 0.00 0.00 0.00 72 1015.6
20210919071815 20 159 11.3 20.9 0.00 0.00 0.00 72 1015.7
20210919071321 20 159 12.9 20.9 0.00 0.00 0.00 71 1015.7
20210919070810 20 107 12.9 20.9 0.00 0.00 0.00 71 1015.7
20210919070312 20 142 11.3 20.9 0.00 0.00 0.00 71 1015.7
20210919065817 20 153 12.9 20.9 0.00 0.00 0.00 71 1015.6
20210919065325 20 127 12.9 19.3 0.00 0.00 0.00 71 1015.8
20210919064831 20 140 14.5 24.1 0.00 0.00 0.00 70 1015.7
20210919064314 20 159 11.3 24.1 0.00 0.00 0.00 70 1015.8
20210919063818 20 156 11.3 24.1 0.00 0.00 0.00 69 1015.7
20210919063311 20 159 14.5 24.1 0.00 0.00 0.00 70 1015.7
20210919062819 20 181 8.0 17.7 0.00 0.00 0.00 69 1015.7
20210919062322 20 138 11.3 24.1 0.00 0.00 0.00 69 1015.8
20210919061810 20 150 12.9 24.1 0.00 0.00 0.00 69 1015.7
20210919061316 20 140 11.3 17.7 0.00 0.00 0.00 69 1015.8
20210919060818 20 152 11.3 19.3 0.00 0.00 0.00 68 1015.8
20210919060323 20 162 12.9 22.5 0.00 0.00 0.00 68 1015.9
20210919055831 20 153 12.9 27.4 0.00 0.00 0.00 67 1015.8
20210919055340 20 161 11.3 25.7 0.00 0.00 0.00 67 1015.8
20210919054822 20 157 11.3 24.1 0.00 0.00 0.00 67 1015.9
20210919054330 20 150 12.9 20.9 0.00 0.00 0.00 67 1015.8